Retour au catalogue

SL-8 R/B

ActifPO
NORAD 17240·ROCKET BODY·🇷🇺 Russia

Lancé Dec 17, 1986 depuis Plesetsk Cosmodrome

Loading…

Prochains Passages (prochaines 24 heures)

TLE

FraisSource: Space-Track

Époque: Sep 14, 2026, 17:09 UTC

1 17240U 86100B   26257.71472899 -.00000052  00000-0 -71490-4 0  9992
2 17240  82.9277  66.7479 0029792 172.3223 198.2759 13.74297534633647

Suivez SL-8 R/B en temps réel avec AllMySat

Download on the App Store